Location: Bessat
(45.8735°N, 1.9924°E)
Time: 21:16:26
(UTC+00:00)

Cosmos 1777 Rocket - Visible Passes

Search period start: 19 September 2021 00:00
Search period end: 29 September 2021 00:00
Orbit: 759 x 775 km, 74.0° (Epoch: 19 September)

Date Brightness Start Highest point End Pass type
(mag) Time Alt. Az. Time Alt. Az. Time Alt. Az.
19 Sep 5.7 18:40:38 10° ESE 18:42:40 12° E 18:44:42 10° ENE visible
19 Sep 3.9 20:18:37 10° SSW 20:23:53 90° NW 20:29:09 10° NNE visible
19 Sep 6.6 22:03:34 10° W 22:06:43 16° NW 22:09:52 10° NNW visible
20 Sep 6.0 05:02:19 10° N 05:07:02 33° ENE 05:11:42 10° ESE visible
20 Sep 4.0 19:41:26 10° S 19:46:32 55° ESE 19:51:39 10° NNE visible
20 Sep 6.1 21:24:44 10° WSW 21:28:56 24° NW 21:33:08 10° N visible
21 Sep 6.6 04:25:21 10° N 04:29:21 22° NE 04:33:19 10° ESE visible
21 Sep 4.6 19:04:40 10° SSE 19:09:18 33° E 19:13:58 10° NE visible
21 Sep 5.4 20:46:27 10° SW 20:51:16 36° WNW 20:56:07 10° N visible
22 Sep 6.9 03:48:44 10° NNE 03:51:32 14° NE 03:54:20 10° E visible
22 Sep 5.2 18:28:27 10° SE 18:32:11 20° E 18:35:53 10° NE visible
22 Sep 4.5 20:08:34 10° SW 20:13:44 58° WNW 20:18:55 10° NNE visible
22 Sep 7.1 21:55:40 10° WNW 21:56:58 11° NW 21:58:17 10° NNW visible
23 Sep 5.1 04:51:55 10° NNW 04:57:00 50° ENE 05:02:02 10° SE visible
23 Sep 3.9 19:31:03 10° SSW 19:36:18 86° ESE 19:41:34 10° NNE visible
23 Sep 6.7 21:15:48 10° W 21:19:05 16° NW 21:22:22 10° N visible
24 Sep 5.9 04:14:46 10° N 04:19:25 31° ENE 04:24:02 10° ESE visible
24 Sep 4.1 18:53:54 10° S 18:58:58 52° ESE 19:04:03 10° NNE visible
24 Sep 6.2 20:37:02 10° WSW 20:41:19 25° NW 20:45:36 10° N visible
25 Sep 6.6 03:37:49 10° N 03:41:43 21° NE 03:45:36 10° E visible
25 Sep 4.7 18:17:11 10° SSE 18:21:45 31° E 18:26:19 10° NE visible
25 Sep 5.4 19:58:48 10° SW 20:03:40 38° WNW 20:08:33 10° N visible
26 Sep 7.0 03:01:16 10° NNE 03:03:54 14° NE 03:06:32 10° ENE visible
26 Sep 4.2 04:41:38 10° NNW 04:46:52 78° ENE 04:52:04 10° SSE visible
26 Sep 4.5 19:20:58 10° SSW 19:26:09 61° WNW 19:31:21 10° NNE visible
26 Sep 7.2 21:07:42 10° WNW 21:09:20 11° NW 21:10:58 10° NNW visible
27 Sep 5.0 04:04:20 10° NNW 04:09:24 47° ENE 04:14:24 10° SE visible
27 Sep 3.9 18:43:29 10° SSW 18:48:43 82° ESE 18:53:58 10° NNE visible
27 Sep 6.7 20:28:03 10° W 20:31:27 17° NW 20:34:52 10° N visible
28 Sep 5.9 03:27:13 10° N 03:31:48 30° ENE 03:36:21 10° ESE visible
28 Sep 4.4 05:09:06 10° NW 05:13:56 40° WSW 05:18:45 10° S visible
28 Sep 4.2 18:06:22 10° S 18:11:24 49° ESE 18:16:27 10° NNE visible
28 Sep 6.2 19:49:22 10° WSW 19:53:42 26° NW 19:58:03 10° N visible
